Date String (YYYY-MM-DD hh:mm:ss) UTC,Instrument flags,Ambient pressure (hPa),Sample flow (lpm),Bypass flow (lpm),Sample temperature (°C),Ambient temperature (°C),ASC tube jacket temperature (°C),LED temperature (°C),Box temperature (°C),Sample RH (%),Span deviation,Mass concentration (μg/m³),Mass concentration (μg/m³),Mass concentration (μg/m³)
DateTimeUTC,F1_M11,P_M11,Q1_M11,Q2_M11,T1_M11,T2_M11,T3_M11,T4_M11,T5_M11,U1_M11,ZSPAN_M11,X2_M11,X0_M11,X1_M11
2023-02-03 16:00:00,,0831.2,5.01,0.00,22.7,21.7,00.0,31.4,24.5,06.0,0000.0,0000.92,0002.98,0000.40
2023-02-03 16:01:00,,0831.3,5.01,0.00,22.8,21.8,00.0,31.4,24.6,06.0,0000.0,0000.90,0002.66,0000.39
2023-02-03 16:02:00,,0831.3,5.01,0.00,22.8,21.8,00.0,31.4,24.6,05.7,0000.0,0000.88,0002.57,0000.39
2023-02-03 16:03:00,,0831.3,5.00,0.00,22.8,21.8,00.0,31.5,24.6,05.6,0000.0,0000.88,0002.37,0000.39
2023-02-03 16:04:00,,0831.4,5.00,0.00,22.8,21.8,00.0,31.5,24.7,05.9,0000.0,0000.83,0002.25,0000.39
2023-02-03 16:05:00,,0831.4,5.00,0.00,22.8,21.9,00.0,31.5,24.7,05.6,0000.0,0000.82,0002.26,0000.38
2023-02-03 16:06:00,,0831.3,5.00,0.00,22.9,21.9,00.0,31.5,24.7,05.4,0000.0,0000.83,0002.09,0000.38
2023-02-03 16:07:00,,0831.3,4.99,0.00,22.9,21.9,00.0,31.5,24.7,05.5,0000.0,0000.83,0002.10,0000.38
2023-02-03 16:08:00,,0831.3,4.99,0.00,22.9,21.9,00.0,31.6,24.7,05.6,0000.0,0000.85,0002.10,0000.38
2023-02-03 16:09:00,,0831.2,4.99,0.00,22.9,21.9,00.0,31.6,24.7,05.7,0000.0,0000.84,0002.08,0000.38
2023-02-03 16:10:00,,0831.3,5.01,0.00,22.9,21.9,00.0,31.6,24.7,05.6,0000.0,0000.84,0002.03,0000.40
2023-02-03 16:11:00,,0831.2,4.99,0.00,23.0,22.0,00.0,31.6,24.8,05.4,0000.0,0000.84,0002.00,0000.41
2023-02-03 16:12:00,,0831.2,5.01,0.00,23.0,22.0,00.0,31.6,24.8,05.5,0000.0,0000.88,0002.18,0000.42
2023-02-03 16:13:00,,0831.2,4.99,0.00,23.0,22.0,00.0,31.7,24.8,06.1,0000.0,0000.88,0002.15,0000.43
2023-02-03 16:14:00,,0831.3,4.99,0.00,23.0,22.0,00.0,31.7,24.9,06.1,0000.0,0000.92,0002.30,0000.44
2023-02-03 16:15:00,,0831.3,5.00,0.00,23.0,22.0,00.0,31.7,24.9,06.2,0000.0,0000.93,0002.82,0000.44
2023-02-03 16:16:00,,0831.2,5.00,0.00,23.1,22.0,00.0,31.7,24.9,05.8,0000.0,0000.93,0003.88,0000.44
2023-02-03 16:17:00,,0831.2,5.00,0.00,23.1,22.1,00.0,31.7,24.9,05.5,0000.0,0000.89,0003.80,0000.43
2023-02-03 16:18:00,,0831.3,4.99,0.00,23.1,22.1,00.0,31.8,24.9,05.6,0000.0,0000.87,0003.76,0000.43
2023-02-03 16:19:00,,0831.2,4.99,0.00,23.1,22.1,00.0,31.8,24.9,05.7,0000.0,0000.87,0003.70,0000.44
2023-02-03 16:20:00,,0831.2,5.00,0.00,23.1,22.1,00.0,31.8,25.0,05.7,0000.0,0000.91,0003.66,0000.44
2023-02-03 16:21:00,,0831.2,5.01,0.00,23.1,22.1,00.0,31.8,25.0,05.9,0000.0,0000.94,0003.79,0000.44
2023-02-03 16:22:00,,0831.3,4.99,0.00,23.2,22.1,00.0,31.8,25.0,06.3,0000.0,0000.99,0004.00,0000.44
2023-02-03 16:23:00,,0831.2,5.01,0.00,23.2,22.2,00.0,31.8,25.0,06.4,0000.0,0000.96,0003.99,0000.43
2023-02-03 16:24:00,,0831.3,5.00,0.00,23.2,22.2,00.0,31.9,25.1,06.0,0000.0,0000.94,0004.31,0000.42
2023-02-03 16:25:00,,0831.2,4.99,0.00,23.2,22.2,00.0,31.9,25.1,06.0,0000.0,0000.90,0004.23,0000.41
2023-02-03 16:26:00,,0831.2,5.00,0.00,23.2,22.2,00.0,31.9,25.1,06.0,0000.0,0000.89,0003.81,0000.42
2023-02-03 16:27:00,,0831.3,4.99,0.00,23.2,22.2,00.0,31.9,25.1,06.4,0000.0,0000.90,0002.63,0000.42
2023-02-03 16:28:00,,0831.3,5.02,0.00,23.2,22.2,00.0,31.9,25.1,06.4,0000.0,0000.93,0002.73,0000.42
2023-02-03 16:29:00,,0831.3,5.00,0.00,23.3,22.2,00.0,32.0,25.1,06.2,0000.0,0000.99,0002.94,0000.43
2023-02-03 16:30:00,,0831.2,5.01,0.00,23.3,22.3,00.0,32.0,25.1,06.8,0000.0,0000.99,0002.91,0000.43
2023-02-03 16:31:00,,0831.2,4.99,0.00,23.3,22.3,00.0,32.0,25.1,06.6,0000.0,0000.99,0002.91,0000.43
2023-02-03 16:32:00,,0831.3,4.99,0.00,23.3,22.3,00.0,32.0,25.1,06.1,0000.0,0000.98,0002.96,0000.42
2023-02-03 16:33:00,,0831.2,4.99,0.00,23.3,22.3,00.0,32.0,25.1,05.8,0000.0,0000.97,0002.89,0000.42
2023-02-03 16:34:00,,0831.2,5.00,0.00,23.3,22.3,00.0,32.0,25.1,05.8,0000.0,0000.93,0002.55,0000.41
2023-02-03 16:35:00,,0831.3,5.01,0.00,23.3,22.3,00.0,32.0,25.1,05.5,0000.0,0000.93,0002.43,0000.42
2023-02-03 16:36:00,,0831.4,5.01,0.00,23.4,22.3,00.0,32.1,25.2,06.4,0000.0,0000.92,0002.28,0000.41
2023-02-03 16:37:00,,0831.3,5.00,0.00,23.4,22.4,00.0,32.1,25.2,06.5,0000.0,0000.94,0002.15,0000.41
2023-02-03 16:38:00,,0831.4,4.99,0.00,23.4,22.4,00.0,32.1,25.2,06.1,0000.0,0000.92,0002.25,0000.42
2023-02-03 16:39:00,,0831.3,5.00,0.00,23.4,22.4,00.0,32.1,25.2,06.4,0000.0,0000.86,0002.13,0000.41
2023-02-03 16:40:00,,0831.2,4.99,0.00,23.4,22.4,00.0,32.1,25.2,06.1,0000.0,0000.82,0002.05,0000.41
2023-02-03 16:41:00,,0831.2,5.00,0.00,23.5,22.4,00.0,32.2,25.2,06.3,0000.0,0000.83,0002.15,0000.42
2023-02-03 16:42:00,,0831.2,5.00,0.00,23.5,22.5,00.0,32.2,25.3,05.7,0000.0,0000.84,0002.17,0000.42
2023-02-03 16:43:00,,0831.2,5.00,0.00,23.5,22.5,00.0,32.2,25.3,06.4,0000.0,0000.84,0002.17,0000.43
2023-02-03 16:44:00,,0831.2,5.01,0.00,23.5,22.5,00.0,32.2,25.3,06.5,0000.0,0000.85,0002.18,0000.43
2023-02-03 16:45:00,,0831.3,5.00,0.00,23.5,22.5,00.0,32.2,25.4,06.2,0000.0,0000.83,0002.15,0000.44
2023-02-03 16:46:00,,0831.2,5.00,0.00,23.6,22.6,00.0,32.2,25.4,06.4,0000.0,0000.86,0002.15,0000.45
2023-02-03 16:47:00,,0831.2,4.99,0.00,23.6,22.6,00.0,32.3,25.5,06.6,0000.0,0000.92,0002.21,0000.46
2023-02-03 16:48:00,,0831.2,5.00,0.00,23.6,22.6,00.0,32.3,25.5,06.5,0000.0,0001.00,0002.47,0000.46
2023-02-03 16:49:00,,0831.2,5.00,0.00,23.6,22.6,00.0,32.3,25.5,06.3,0000.0,0001.03,0002.44,0000.47
2023-02-03 16:50:00,,0831.2,4.98,0.00,23.6,22.7,00.0,32.3,25.5,06.4,0000.0,0001.06,0002.52,0000.48
2023-02-03 16:51:00,,0831.3,5.00,0.00,23.7,22.7,00.0,32.3,25.5,06.5,0000.0,0001.09,0002.56,0000.49
2023-02-03 16:52:00,,0831.2,4.99,0.00,23.7,22.7,00.0,32.3,25.5,06.8,0000.0,0001.16,0002.96,0000.49
2023-02-03 16:53:00,,0831.2,5.01,0.00,23.7,22.7,00.0,32.4,25.5,07.0,0000.0,0001.16,0003.18,0000.49
2023-02-03 16:54:00,,0831.2,5.00,0.00,23.7,22.8,00.0,32.4,25.6,06.7,0000.0,0001.21,0003.24,0000.50
2023-02-03 16:55:00,,0831.1,5.00,0.00,23.7,22.8,00.0,32.4,25.6,06.6,0000.0,0001.24,0003.34,0000.49
2023-02-03 16:56:00,,0831.2,5.01,0.00,23.8,22.8,00.0,32.4,25.6,06.5,0000.0,0001.24,0003.36,0000.49
2023-02-03 16:57:00,,0831.2,5.00,0.00,23.8,22.8,00.0,32.5,25.6,06.5,0000.0,0001.20,0003.27,0000.49
2023-02-03 16:58:00,,0831.2,5.01,0.00,23.8,22.8,00.0,32.5,25.6,06.1,0000.0,0001.16,0003.14,0000.49
2023-02-03 16:59:00,,0831.2,5.01,0.00,23.8,22.8,00.0,32.5,25.6,06.0,0000.0,0001.09,0002.91,0000.49
